Regional Weather Roundup
Issued by NWS

Home | Current Version | Previous Version | Graphics & Text | Print | Product List | Glossary On
Versions: 1 2 3 4 5 6 7 8 9 10 11 12 13 14 15 16 17 18 19 20 21 22 23 24 25 26 27 28 29 30 31 32 33 34 35 36 37 38 39 40 41 42 43 44 45 46 47 48 49 50
000
ASUS43 KLSX 060359
RWRMO

WEATHER SUMMARY FOR MISSOURI
NATIONAL WEATHER SERVICE SPRINGFIELD MO
1100 PM CDT SUN JUL 05 2015

NOTE: "FAIR" INDICATES FEW OR NO CLOUDS BELOW 12,000 FEET WITH NO
       SIGNIFICANT WEATHER AND/OR OBSTRUCTIONS TO VISIBILITY.
       CURRENT SKY AND/OR WEATHER CONDITIONS ARE NOT AVAILABLE FOR
       CHILLICOTHE AND FARMINGTON.

MOZ001>031-035>038-043-044-053-054-060500-
...NORTHERN AND WESTERN MISSOURI...

CITY           SKY/WX    TMP DP  RH WIND       PRES   REMARKS
KANSAS CTY INT PTCLDY    81  72  74 S14       29.89S
KANSAS C DTWN  CLEAR     82  70  66 S13       29.88F
LEE`S SUMMIT   CLEAR     78  67  68 S12G20    29.91F
ST JOSEPH      CLEAR     83  74  74 S12       29.86S
CHILLICOTHE      N/A     80  73  79 S6        29.91F
KIRKSVILLE     CLEAR     75  68  78 SE12      29.94F

$$
MOZ066>068-077>081-088>096-101>105-060500-
...SOUTHWEST MISSOURI...

CITY           SKY/WX    TMP DP  RH WIND       PRES   REMARKS
SPRINGFIELD    CLEAR     72  67  84 S12       30.02S
JOPLIN         CLOUDY    76  67  73 S13       29.96F

$$
MOZ032>034-039>042-045>050-055>058-069>072-060500-
...CENTRAL MISSOURI...

CITY           SKY/WX    TMP DP  RH WIND       PRES   REMARKS
COLUMBIA       CLEAR     76  71  85 S8        29.98R
JEFFERSON CITY CLEAR     77  71  82 E6        29.97R
ROLLA          CLEAR     75  71  87 S12       30.00S
SEDALIA        CLEAR     75  65  70 S12       29.96F
OSAGE BEACH    CLEAR     75  64  69 S7        29.99F

$$
MOZ051-052-059>065-060500-
...EAST CENTRAL MISSOURI...

CITY           SKY/WX    TMP DP  RH WIND       PRES   REMARKS
ST LOUIS INTL  MOCLDY    80  67  64 S12       30.02S
SPIRIT OF STL  CLEAR     77  70  79 S5        30.00S HAZE
ST CHARLES     CLEAR     75  69  81 SE5       30.00S HAZE

$$
MOZ072>076-082>087-097>100-106>115-060500-
...SOUTH CENTRAL AND SOUTHEAST MISSOURI...

CITY           SKY/WX    TMP DP  RH WIND       PRES   REMARKS
CAPE GIRARDEAU CLEAR     74  69  85 CALM      30.04S
FARMINGTON     PTCLDY    72  70  94 S3        30.09S
POPLAR BLUFF   CLEAR     76  73  91 S5        30.03F
WEST PLAINS    MOCLDY    75  71  87 S8        30.08R

$$


USA.gov is the U.S. government's official web portal to all federal, state and local government web resources and services.